Retour au catalogue

LYNK TOWER 4

ActifCommunicationsSSO
NORAD 55034·PAYLOAD·🇺🇸 United States

Lancé Jan 3, 2023 depuis Cape Canaveral Space Force Station

Loading…

Prochains Passages (prochaines 24 heures)

TLE

FraisSource: Space-Track

Époque: Sep 14, 2026, 10:01 UTC

1 55034U 23001AB  26257.41739506  .00005757  00000-0  17450-3 0  9994
2 55034  97.3100 315.5147 0008720 148.7888 211.3874 15.34490849205501

Suivez LYNK TOWER 4 en temps réel avec AllMySat

Download on the App Store